Location: Unspecified
(0.0000°N, 0.0000°E)
Time: 10:53:21
(UTC+01:00)

NATO 3D Rocket - Visible Passes

Search period start: 28 February 2017 00:00
Search period end: 10 March 2017 00:00
Orbit: 670 x 2296 km, 21.5° (Epoch: 26 February)

Date Brightness Start Highest point End Pass type
(mag) Time Alt. Az. Time Alt. Az. Time Alt. Az.
28 Feb 6.0 04:46:53 24° N 04:46:53 24° N 04:52:30 10° ENE visible
28 Feb 4.9 06:44:36 10° NW 06:51:48 41° NNE 06:57:04 10° E visible
28 Feb 5.8 21:13:09 10° W 21:25:25 65° NNW 21:30:02 47° NE visible
28 Feb 7.1 23:20:28 10° W 23:25:34 24° WNW 23:25:34 24° WNW visible
01 Mar 6.7 03:53:14 16° NE 03:53:14 16° NE 03:55:07 10° NE visible
01 Mar 5.4 05:48:46 18° NW 05:54:15 35° NNE 06:00:06 10° E visible
01 Mar 5.7 20:15:15 10° WSW 20:26:27 76° NNW 20:36:27 23° ENE visible
01 Mar 6.3 22:21:17 10° W 22:31:59 42° NNW 22:31:59 42° NNW visible
02 Mar 5.8 04:55:07 31° N 04:56:20 32° NNE 05:02:56 10° ENE visible
02 Mar 5.5 19:17:49 10° WSW 19:27:45 90° NNW 19:41:23 10° ENE visible
02 Mar 6.1 21:22:43 10° W 21:34:22 50° NNW 21:38:24 42° NNE visible
02 Mar 7.3 23:30:31 10° WNW 23:33:56 18° WNW 23:33:56 18° WNW visible
03 Mar 6.4 04:01:30 24° NE 04:01:30 24° NE 04:05:33 10° ENE visible
03 Mar 4.9 05:57:02 19° NW 06:03:41 53° NNE 06:10:03 10° E visible
03 Mar 5.9 20:24:40 10° W 20:35:22 58° NNW 20:44:48 23° NE visible
03 Mar 6.6 22:31:16 10° WNW 22:40:20 34° NNW 22:40:20 34° NNW visible
04 Mar 5.4 05:03:26 39° NNW 05:05:50 45° NNE 05:13:03 10° E visible
04 Mar 5.6 19:27:07 10° WSW 19:36:40 69° NNW 19:49:53 10° ENE visible
04 Mar 6.3 21:32:35 10° W 21:43:34 40° NNW 21:46:43 36° NNE visible
04 Mar 7.5 23:40:36 10° WNW 23:42:15 14° NW 23:42:15 14° NW visible
05 Mar 5.9 04:09:50 36° NE 04:09:50 36° NE 04:15:45 10° E visible
05 Mar 4.6 06:05:22 18° WNW 06:12:55 79° NNE 06:19:38 10° ESE visible
05 Mar 6.1 20:34:25 10° W 20:44:31 45° NNW 20:53:05 22° NE visible
05 Mar 6.8 22:41:25 10° WNW 22:48:37 27° NNW 22:48:37 27° NNW visible
06 Mar 6.9 03:16:15 17° ENE 03:16:15 17° ENE 03:18:06 10° ENE visible
06 Mar 5.0 05:11:47 45° NW 05:15:07 64° NNE 05:22:48 10° E visible
06 Mar 5.9 19:36:45 10° W 19:45:47 51° NNW 19:58:12 10° NE visible
06 Mar 6.5 21:42:42 10° WNW 21:52:59 33° N 21:54:58 31° N visible
06 Mar 7.6 23:50:27 10° NW 23:50:30 10° NW 23:50:30 10° NW visible
07 Mar 5.5 04:18:12 52° NE 04:18:12 52° NE 04:25:39 10° E visible
07 Mar 4.7 06:13:45 17° WNW 06:21:58 72° SSW 06:28:55 10° ESE visible
07 Mar 6.4 20:44:29 10° WNW 20:53:53 35° NNW 21:01:17 21° NE visible
07 Mar 7.0 22:51:31 10° NW 22:56:49 22° NNW 22:56:49 22° NNW visible
08 Mar 6.6 03:24:38 25° ENE 03:24:38 25° ENE 03:28:07 10° E visible
08 Mar 4.9 05:20:10 45° WNW 05:24:11 89° NNE 05:32:12 10° ESE visible
08 Mar 6.2 19:46:42 10° WNW 19:55:08 38° NNW 20:06:28 10° NE visible
08 Mar 6.6 21:52:56 10° WNW 22:02:37 28° N 22:03:07 28° N visible
09 Mar 5.2 04:26:36 72° NE 04:26:36 72° NE 04:35:12 10° ESE visible
09 Mar 5.1 06:22:08 14° W 06:30:54 51° SSW 06:37:57 10° SE visible
09 Mar 6.5 20:54:45 10° WNW 21:03:29 29° N 21:09:23 21° NNE visible
09 Mar 7.1 23:01:19 10° NW 23:04:54 19° NW 23:04:54 19° NW visible
